Torna al catalogo

ARIANE 44LP DEB

AttivoHEO
NORAD 28040·DEBRIS·🇫🇷 France

Lanciato Mar 2, 1991 da Guiana Space Centre

Loading…

Prossimi Passaggi (prossime 24 ore)

TLE

AggiornatoSource: Space-Track

Epoca: Sep 14, 2026, 09:21 UTC

1 28040U 91015P   26257.39027181 -.00000040  00000-0  00000-0 0  9998
2 28040   7.5595 228.3858 6439751 204.0933 354.6065  2.76511426133009

Traccia ARIANE 44LP DEB in tempo reale con AllMySat

Download on the App Store